Tracking 18785 objects as of 21-July-2017
HD Live streaming from Space Station
objects crossing your sky now
MAYAK may become the brightest orbital object in the night sky!
Where is MAYAK now?
How to spot MAYAK

DSCS 3-1

Track DSCS 3-1 now!
DSCS 3-1 is classified as:


NORAD ID: 13637
Int'l Code: 1982-106B
Perigee: 36,429.1 km
Apogee: 36,559.9 km
Inclination: 15.4 °
Period: 1,472.0 minutes
Semi major axis: 42865 km
RCS: Unknown
Launch date: October 30, 1982
Source: United States (US)
Launch site: AIR FORCE EASTERN TEST RANGE (AFETR)
Your satellite tracking list
Your tracking list is empty





NASA's NSSDC Master Catalog

Two Line Element Set (TLE):
1 13637U 82106B   17169.69715538 0.00000000  00000-0  00000-0 0    08
2 13637  15.3975   0.1472 0015254 114.7204 245.4435  0.97822982    06
Source of the keplerian elements: McCants